Home > Weather > Newport > Past weeks

Flag for United Kingdom Past Weather in Newport, Wales, United Kingdom — Yesterday and Last 2 Weeks

Now
64 °F

Passing clouds.


Feels Like: 64 °F
Forecast: 55 / 68 °F
Wind: 10 mph from North

Location: Bristol / Lulsgate

Current Time: May 30, 2016 at 5:36:24 PM

Latest Report: May 30, 2016 at 5:20 PM


Visibility: N/A

Pressure: 30.07 "Hg

Humidity: 64%

Dew Point: 52 °F

Location of NewportLocation

Past Weather in Newport — Graph

°F

Newport Temperature Yesterday

Maximum temperature yesterday: 66 °F (at 3:50 PM)
Minimum temperature yesterday: 48 °F (at 4:50 AM)
Average temperature yesterday: 58 °F

High & Low Weather Summary for the Past Weeks

 TemperatureHumidityPressure
High66 °F (May 27, 3:20 PM)100% (May 17, 3:20 AM)30.21 "Hg (May 17, 3:20 AM)
Low41 °F (May 25, 4:20 AM)45% (May 26, 5:20 PM)29.59 "Hg (May 18, 8:50 AM)
Average53 °F81%29.96 "Hg
* Reported May 15 4:20 PM — May 30 4:20 PM, Newport, Weather by CustomWeather, © 2016

Note: Actual official high and low records may vary slightly from our data, if they occured in-between our weather recording intervals... More about our weather records

Advertising

Newport Weather History for the Previous 24 Hours

Scroll right to see more
 ConditionsComfort  
Time TempWeatherWind HumidityBarometerVisibility
4:20 PM
Mon, May 30
64 °FPassing clouds.14 mph60%30.07 "HgN/A
3:50 PM63 °FPartly sunny.15 mph64%30.07 "HgN/A
3:20 PM63 °FPartly sunny.15 mph68%30.07 "HgN/A
2:50 PM63 °FPartly sunny.16 mph68%30.07 "HgN/A
2:20 PM63 °FScattered clouds.16 mph68%30.07 "HgN/A
1:50 PM63 °FScattered clouds.15 mph68%30.07 "HgN/A
1:20 PM61 °FScattered clouds.14 mph72%30.07 "HgN/A
12:50 PM61 °FScattered clouds.14 mph72%30.07 "HgN/A
12:20 PM59 °FScattered clouds.13 mph77%30.07 "HgN/A
11:50 AM59 °FPartly sunny.13 mph77%30.07 "HgN/A
11:20 AM57 °FPartly sunny.10 mph77%30.07 "HgN/A
10:50 AM55 °FLow clouds.9 mph82%30.07 "HgN/A
10:20 AM54 °FLow clouds.12 mph88%30.07 "HgN/A
9:50 AM54 °FLow clouds.12 mph88%30.07 "HgN/A
9:20 AM54 °FLow clouds.13 mph88%30.07 "HgN/A
8:50 AM52 °FLow clouds.12 mph94%30.07 "HgN/A
8:20 AM52 °FLow clouds.10 mph88%30.04 "Hg6 mi
7:50 AM52 °FLow clouds.13 mph88%30.04 "Hg6 mi
7:20 AM52 °FLow clouds.10 mph88%30.04 "Hg6 mi
6:50 AM52 °FLow clouds.9 mph88%30.04 "Hg4 mi
6:20 AM50 °FLow clouds.13 mph94%30.01 "Hg4 mi
5:50 AM50 °FLow clouds.9 mph94%30.01 "Hg3 mi
5:20 AM50 °FLow clouds.10 mph94%30.01 "Hg3 mi
4:50 AM50 °FLow clouds.10 mph94%30.01 "Hg3 mi
4:20 AM50 °FPassing clouds.12 mph94%30.01 "Hg3 mi
3:50 AM52 °FCool.12 mph88%30.01 "HgN/A
3:20 AM52 °FCool.10 mph88%30.01 "HgN/A
2:50 AM54 °FCool.9 mph82%30.01 "HgN/A
2:20 AM54 °FCool.7 mph82%30.01 "HgN/A
1:50 AM54 °FCool.8 mph82%30.01 "HgN/A
1:20 AM55 °FCool.8 mph77%30.01 "HgN/A
12:50 AM55 °FCool.9 mph77%30.01 "HgN/A
12:20 AM55 °FCool.9 mph77%30.01 "HgN/A
11:50 PM
Sun, May 29
55 °FCool.7 mph77%30.01 "HgN/A
11:20 PM57 °FCool.8 mph72%30.01 "HgN/A
10:50 PM57 °FCool.9 mph72%30.01 "HgN/A
10:20 PM57 °FCool.8 mph72%30.01 "HgN/A
9:50 PM57 °FCool.9 mph67%30.01 "HgN/A
9:20 PM59 °FCool.10 mph63%29.98 "HgN/A
8:50 PM59 °FCool.12 mph68%29.98 "HgN/A
8:20 PM61 °FCool.13 mph68%29.98 "HgN/A
7:50 PM63 °FMild.13 mph64%29.98 "HgN/A
7:20 PM63 °FMild.13 mph64%29.95 "HgN/A
6:50 PM64 °FMild.13 mph60%29.95 "HgN/A
6:20 PM64 °FMild.13 mph60%29.95 "HgN/A
5:50 PM66 °FMild.14 mph52%29.95 "HgN/A
5:20 PM66 °FPassing clouds.13 mph56%29.95 "HgN/A
Weather by CustomWeather, © 2016

See weather overviewHow to use our weather pages